TimePDT,TemperatureF,Dew PointF,Humidity,Sea Level PressureIn,VisibilityMPH,Wind Direction,Wind SpeedMPH,Gust SpeedMPH,PrecipitationIn,Events,Conditions,WindDirDegrees,DateUTC
12:53 AM,39.0,35.1,86,30.26,9.0,South,3.5,-,N/A,,Clear,190,2011-10-18 07:53:00
1:53 AM,37.0,33.1,86,30.27,10.0,Calm,Calm,-,N/A,,Clear,0,2011-10-18 08:53:00
2:53 AM,36.0,32.0,86,30.27,9.0,South,3.5,-,N/A,,Clear,170,2011-10-18 09:53:00
3:53 AM,33.8,30.2,87,30.36,9.0,South,3.5,-,N/A,,Clear,190,2011-10-18 10:53:00
4:53 AM,34.0,30.0,85,30.28,10.0,Calm,Calm,-,N/A,,Clear,0,2011-10-18 11:53:00
5:29 AM,33.8,28.4,81,30.37,9.0,Calm,Calm,-,N/A,,Partly Cloudy,0,2011-10-18 12:29:00
5:53 AM,33.1,28.9,85,30.30,7.0,South,3.5,-,N/A,,Partly Cloudy,190,2011-10-18 12:53:00
6:53 AM,33.8,28.4,81,30.36,9.0,South,3.5,-,N/A,,Clear,190,2011-10-18 13:53:00
7:53 AM,33.1,28.9,85,30.31,6.0,SSW,3.5,-,N/A,,Clear,200,2011-10-18 14:53:00
8:06 AM,32.0,28.4,87,30.36,3.0,South,3.5,-,N/A,,Partly Cloudy,190,2011-10-18 15:06:00
8:11 AM,32.0,28.4,87,30.36,1.8,South,3.5,-,N/A,,Scattered Clouds,190,2011-10-18 15:11:00
8:19 AM,33.8,30.2,87,30.36,3.0,Calm,Calm,-,N/A,,Partly Cloudy,0,2011-10-18 15:19:00
8:27 AM,33.8,30.2,87,30.36,6.0,South,3.5,-,N/A,,Partly Cloudy,180,2011-10-18 15:27:00
8:53 AM,39.9,35.1,83,30.31,10.0,Calm,Calm,-,N/A,,Clear,0,2011-10-18 15:53:00
9:53 AM,51.1,41.0,68,30.28,10.0,Calm,Calm,-,N/A,,Clear,0,2011-10-18 16:53:00
10:53 AM,59.0,39.9,49,30.24,10.0,Calm,Calm,-,N/A,,Clear,0,2011-10-18 17:53:00
11:53 AM,63.0,43.0,48,30.21,10.0,NE,4.6,-,N/A,,Clear,50,2011-10-18 18:53:00
12:53 PM,64.9,44.1,47,30.19,10.0,NNE,6.9,-,N/A,,Clear,30,2011-10-18 19:53:00
1:53 PM,66.9,44.1,44,30.16,10.0,Calm,Calm,-,N/A,,Clear,0,2011-10-18 20:53:00
2:53 PM,69.1,39.9,35,30.13,9.0,Calm,Calm,-,N/A,,Clear,0,2011-10-18 21:53:00
3:53 PM,69.1,41.0,36,30.12,10.0,NNE,4.6,-,N/A,,Clear,20,2011-10-18 22:53:00
4:53 PM,64.9,44.1,47,30.12,10.0,North,3.5,-,N/A,,Clear,360,2011-10-18 23:53:00
5:53 PM,57.2,46.4,67,30.20,10.0,Calm,Calm,-,N/A,,Clear,0,2011-10-19 00:53:00
6:53 PM,53.1,41.0,64,30.14,10.0,Calm,Calm,-,N/A,,Clear,0,2011-10-19 01:53:00
7:53 PM,51.1,44.1,77,30.16,10.0,Calm,Calm,-,N/A,,Clear,0,2011-10-19 02:53:00
8:53 PM,48.0,42.1,80,30.13,10.0,Calm,Calm,-,N/A,,Clear,0,2011-10-19 03:53:00
9:53 PM,46.0,39.9,79,30.11,10.0,Calm,Calm,-,N/A,,Clear,0,2011-10-19 04:53:00
10:53 PM,44.1,39.0,82,30.09,10.0,South,4.6,-,N/A,,Clear,190,2011-10-19 05:53:00
11:53 PM,42.1,37.0,82,30.08,10.0,SSW,4.6,-,N/A,,Clear,200,2011-10-19 06:53:00